Skip Page Navigation
NASA JPL Caltech
NASA Logo - Jet Propulsion Laboratory + View the NASA Portal
+ Center for Near-Earth Object Studies
JPL Home Earth Solar System Stars & Galaxies Technology
JPL Solar System Dynamics
BODIES ORBITS EPHEMERIDES TOOLS PHYSICAL DATA DISCOVERY FAQ SITE MAP
IMPORTANT: The SSD Announcement email list is now available. Major changes are coming in the near future, including possible hostname and/or URL changes. To be notified of such changes, subscribe to this email list.

Please visit this page for more details.


JPL Small-Body Database Browser
Search: [ help ]  
80098 (1999 MV1)
Classification: Mars-crossing Asteroid          SPK-ID: 2080098
Ephemeris | Orbit Diagram | Orbital Elements | Mission Design | Physical Parameters | Discovery Circumstances ]

[ show orbit diagram ]
Orbital Elements at Epoch 2458600.5 (2019-Apr-27.0) TDB
Reference: JPL 18 (heliocentric ecliptic J2000)
 Element Value Uncertainty (1-sigma)   Units 
e .2994048576865218 3.7789e-08  
a 2.178427200874078 5.5526e-09 au
q 1.526195514815927 8.3736e-08 au
i 1.441541625432495 3.7294e-06 deg
node 89.84031952465068 0.00015231 deg
peri 254.9659300060159 0.0001525 deg
M 36.20229799823185 6.5433e-06 deg
tp 2458482.400885367356
(2018-Dec-29.90088537)
2.1136e-05 TDB
period 1174.391782251736
3.22
4.4901e-06
1.229e-08
d
yr
n .3065416545318028 1.172e-09 deg/d
Q 2.83065888693223 7.2151e-09 au
  Orbit Determination Parameters
   # obs. used (total)      703  
   data-arc span      9138 days (25.02 yr)  
   first obs. used      1993-12-10  
   last obs. used      2018-12-17  
   planetary ephem.      DE431  
   SB-pert. ephem.      SB431-N16  
   condition code      0  
   norm. resid. RMS      .58348  
   source      ORB  
   producer      Otto Matic  
   solution date      2019-Jul-13 06:22:42  

Additional Information
 Earth MOID = .518734 au 
 Jupiter MOID = 2.58532 au 
 T_jup = 3.623 
[ show covariance matrix ]

Ephemeris | Orbit Diagram | Orbital Elements | Mission Design | Physical Parameters | Discovery Circumstances ]

Physical Parameter Table
Parameter Symbol Value Units Sigma Reference Notes
absolute magnitude H 16.3   n/a MPO259821  

80098 (1999 MV1)          Discovered 1999-Jun-20 by LONEOS at Anderson Mesa
Reference: 20040504/Numbers.arcLast Updated: 2004-07-16

Alternate Designations
 1999 MV1 = 2002 LM19 
Ephemeris | Orbit Diagram | Orbital Elements | Mission Design | Physical Parameters | Discovery Circumstances ]
ABOUT SSD CREDITS/AWARDS PRIVACY/COPYRIGHT GLOSSARY LINKS
FirstGov 2020-Jan-17 22:39 UT
(server date/time)  
NASA Home Page
Site Manager:   Ryan S. Park
Webmaster  Alan B. Chamberlin